Regional Weather Roundup
Issued by NWS Sterling, VA

Home | Current Version | Previous Version | Text Only | Print | Product List | Glossary Off
Versions: 1 2 3 4 5 6 7 8 9 10 11 12 13 14 15 16 17 18 19 20 21 22 23 24 25 26 27

000
ASUS41 KLWX 221510
RWRLWX

REGIONAL WEATHER ROUNDUP
NATIONAL WEATHER SERVICE BALTIMORE MD/WASHINGTON DC
1100 AM EDT TUE APR 22 2014

Note: "FAIR" indicates few or no clouds below 12,000 feet
with no significant weather and/or obstructions to visibility.
 TC=TEMPERATURE CELSIUS

 * =Non NWS site. Station does not report precipitation (e.g. rain,
    snow, etc.), thunder, or fog.

DCZ001-MDZ009-015-VAZ040>042-051-053>054-221600-
WASHINGTON METRO

CITY           SKY/WX    TMP DP  RH WIND       PRES   REMARKS
WASHINGTON NAT CLOUDY    63  49  60 S8        29.70F
DULLES         PTSUNNY   64  43  46 S6        29.69F
ANDREWS AFB    MOSUNNY   67  44  43 S5        29.69F
FT BELVOIR     MOSUNNY   65  47  50 SE2       29.70
QUANTICO       PTSUNNY   63  51  65 S6        29.71F
COLLEGE PARK*  MOSUNNY   63  48  59 SE3       29.69F
LEESBURG*      PTSUNNY   68  46  45 SW6       29.69F
MANASSAS*      PTSUNNY   66  46  48 CALM      29.69F
GAITHERSBURG*  CLOUDY    66  45  45 S6        29.71F

$$

MDZ006>007-011-014-221600-
BALTIMORE METRO

CITY           SKY/WX    TMP DP  RH WIND       PRES   REMARKS
BWI AIRPORT    PTSUNNY   65  46  50 W5        29.69F
MD SCIENCE CTR   N/A     64  49  57 MISG      29.69F
MARTIN STATE   MOSUNNY   61  54  77 E8        29.71F
ANNAPOLIS      SUNNY     57  50  77 SE14      29.70F
FORT MEADE*    SUNNY     64  45  48 CALM      29.71F

$$

MDZ012-015-019>023-221600-
MARYLAND EASTERN SHORE

CITY           SKY/WX    TMP DP  RH WIND       PRES   REMARKS
OCEAN CITY     MOSUNNY   60  51  72 S8        29.74F
SALISBURY      SUNNY     70  45  40 SW13      29.72
BAY BRIDGE AP* SUNNY     61  48  63 SE12      29.70F
CAMBRIDGE*     SUNNY     66  45  45 S9G16     29.71F
EASTON*        MOSUNNY   68  48  49 SW9       29.74F

$$

MDZ017>025-221600-
SOUTHERN MARYLAND

CITY           SKY/WX    TMP DP  RH WIND       PRES   REMARKS
PATUXENT RIVER PTSUNNY   67  46  47 S6        29.70F
ST INIGOES     SUNNY     65  46  50 SE8       29.70F
LEONARDTOWN*   SUNNY     66  41  39 S8        29.72F

$$

MDZ003>005-221600-
NORTH CENTRAL MARYLAND

CITY           SKY/WX    TMP DP  RH WIND       PRES   REMARKS
FREDERICK*     SUNNY     66  48  52 SW6       29.71F
HAGERSTOWN APT CLOUDY    61  41  47 S5        29.69F
WESTMINSTER*   CLOUDY    66  43  42 SW9       29.68F

$$

MDZ501>502-221600-
WESTERN MARYLAND

CITY           SKY/WX    TMP DP  RH WIND       PRES   REMARKS
OAKLAND*       CLOUDY    50 N/A N/A SW9       29.75F FOG
CUMBERLAND*    CLOUDY    59  43  55 CALM      29.73F

$$

VAZ025>031-221600-
SHENANDOAH VALLEY

CITY           SKY/WX    TMP DP  RH WIND       PRES   REMARKS
WINCHESTER*    LGT RAIN  66  46  48 SW6       29.70S
STAUNTON*      CLOUDY    66  45  47 S5        29.75F

$$

WVZ021-048>050-054>055-221600-
EASTERN WEST VIRGINIA PANHANDLE

CITY           SKY/WX    TMP DP  RH WIND       PRES   REMARKS
MARTINSBURG    LGT RAIN  67  47  48 SW8       29.69F
PETERSBURG*    CLOUDY    73  55  53 SW10G16   29.72S

$$

VAZ036>039-050-221600-
CENTRAL FOOTHILLS

CITY           SKY/WX    TMP DP  RH WIND       PRES   REMARKS
CHARLOTTESVILL CLOUDY    66  44  45 S6        29.71F
CULPEPER*      CLOUDY    72  39  30 CALM      29.70F

$$

VAZ055>057-221600-
NORTH AND CENTRAL PIEDMONT

CITY           SKY/WX    TMP DP  RH WIND       PRES   REMARKS
FREDERICKSBRG* MOSUNNY   72  43  35 S6        29.69F
STAFFORD*      MOSUNNY   70  46  42 CALM      29.74F

$$

NCZ024-NYZ072-PAZ021-071-VAZ022-071-221600-
OTHER REGIONAL OBSERVATIONS

CITY           SKY/WX    TMP DP  RH WIND       PRES   REMARKS
NEW YORK CITY  PTSUNNY   63  45  51 W10G17    29.70F
PHILADELPHIA   PTSUNNY   65  44  46 SW13      29.69F
PITTSBURGH     DRIZZLE   57  55  93 W8        29.69F FOG
ROANOKE        CLOUDY    70  46  42 SW9       29.79F
RICHMOND       PTSUNNY   70  46  42 VRB3      29.72F
RALEIGH        PTSUNNY   71  49  45 SW8       29.79F

$$

ANZ530>537-221600-
MARINE OBSERVATIONS

STATION/POSITION TIME  TEMP    WIND        PRES
                       AIR SEA DIR/SP/G
                 (UTC) (F)     (DEG/KT/KT) (MB)
THOMAS PT LIGHT  1500   55 54  160/ 13/ 14 1006.0F
BALT KEY BRIDGE  1500   58      70/  4/  5 1005.6F
COVE POINT       1500   53     170/ 14/ 15 1005.8F
LEWISETTA        1500   65 56  220/  7/  8 1005.6F
SOLOMONS ISLAND  1500      55                N/A
PINEY POINT      1500          150/  6/  6   N/A

$$




USA.gov is the U.S. government's official web portal to all federal, state and local government web resources and services.